When you browse on this site, cookies collect data to enhance your experience and personalize the content and advertising you see.
Visit our Privacy Policy to learn more. By continuing to use the site, you agree to this use of cookies and data.
  • In Österreich
  • Länderverzeichnis
  • Für 7 Tage
  • Wassertemperatur
  • Satellitenkarten
  • Wetterkarte
  • News
  • Widgets
  • user-avatar
    Anmelden

    Stündliche Wetter Starkville

    Heute, 21 Februar, Donnerstag

    Zeit Temperatur Niederschläge Wind Luftdruck Luftfeuchtigkeit
    00:00 +9°C° 0 mm 2 m/S 753 mmHg 91%
    01:00 +9°C° 0.3 mm 2 m/S 753 mmHg 91%
    02:00 +9°C° 0.3 mm 2 m/S 753 mmHg 91%
    03:00 +8°C° 0.3 mm 2 m/S 754 mmHg 91%
    04:00 +8°C° 0.6 mm 2 m/S 754 mmHg 91%
    05:00 +8°C° 0.6 mm 2 m/S 754 mmHg 91%
    06:00 +8°C° 0.6 mm 2 m/S 754 mmHg 91%
    07:00 +8°C° 0.7 mm 2 m/S 755 mmHg 91%
    08:00 +8°C° 0.7 mm 2 m/S 755 mmHg 90%
    09:00 +8°C° 0.7 mm 2 m/S 755 mmHg 90%
    10:00 +9°C° 0.2 mm 3 m/S 755 mmHg 90%
    11:00 +9°C° 0.2 mm 3 m/S 755 mmHg 89%
    12:00 +9°C° 0.2 mm 3 m/S 755 mmHg 89%
    13:00 +9°C° 0.2 mm 3 m/S 755 mmHg 89%
    14:00 +7°C° 0.2 mm 4 m/S 755 mmHg 90%
    15:00 +7°C° 0.2 mm 4 m/S 754 mmHg 90%
    16:00 +7°C° 0.6 mm 4 m/S 755 mmHg 91%
    17:00 +7°C° 0.6 mm 4 m/S 755 mmHg 92%
    18:00 +7°C° 0.6 mm 4 m/S 755 mmHg 93%
    19:00 +7°C° 0.5 mm 4 m/S 755 mmHg 93%
    20:00 +8°C° 0.5 mm 4 m/S 755 mmHg 93%
    21:00 +9°C° 0.5 mm 3 m/S 756 mmHg 93%
    22:00 +9°C° 0.7 mm 3 m/S 756 mmHg 93%
    23:00 +9°C° 0.7 mm 3 m/S 755 mmHg 93%

    Morgen, 22 Februar, Freitag

    Zeit Temperatur Niederschläge Wind Luftdruck Luftfeuchtigkeit
    00:00 +9°C° 0.7 mm 3 m/S 755 mmHg 94%
    01:00 +9°C° 0.7 mm 3 m/S 755 mmHg 95%
    02:00 +10°C° 0.7 mm 2 m/S 755 mmHg 95%
    03:00 +10°C° 0.7 mm 2 m/S 754 mmHg 96%
    04:00 +10°C° 1.5 mm 2 m/S 754 mmHg 97%
    05:00 +10°C° 1.5 mm 2 m/S 754 mmHg 97%
    06:00 +12°C° 1.5 mm 2 m/S 754 mmHg 98%
    07:00 +13°C° 0.6 mm 1 m/S 755 mmHg 97%
    08:00 +13°C° 0.6 mm 1 m/S 755 mmHg 97%
    09:00 +14°C° 0.6 mm 1 m/S 756 mmHg 96%
    10:00 +16°C° 0 mm 1 m/S 756 mmHg 94%
    11:00 +17°C° 0 mm 2 m/S 756 mmHg 92%
    12:00 +19°C° 0 mm 2 m/S 756 mmHg 90%
    13:00 +21°C° 0.3 mm 1 m/S 755 mmHg 89%
    14:00 +22°C° 0.3 mm 1 m/S 755 mmHg 88%
    15:00 +23°C° 0.3 mm 1 m/S 754 mmHg 88%
    16:00 +22°C° 0.3 mm 1 m/S 754 mmHg 91%
    17:00 +21°C° 0.3 mm 1 m/S 754 mmHg 94%
    18:00 +19°C° 0.3 mm 2 m/S 754 mmHg 96%
    19:00 +19°C° 1.2 mm 2 m/S 754 mmHg 97%
    20:00 +19°C° 1.2 mm 2 m/S 754 mmHg 97%
    21:00 +18°C° 1.2 mm 2 m/S 754 mmHg 98%
    22:00 +19°C° 0.6 mm 2 m/S 754 mmHg 97%
    23:00 +19°C° 0.6 mm 2 m/S 754 mmHg 96%

    übermorgen, 23 Februar, Samstag

    Zeit Temperatur Niederschläge Wind Luftdruck Luftfeuchtigkeit
    00:00 +19°C° 0.6 mm 3 m/S 753 mmHg 96%
    01:00 +19°C° 1.1 mm 3 m/S 753 mmHg 96%
    02:00 +19°C° 1.1 mm 3 m/S 753 mmHg 96%
    03:00 +18°C° 1.1 mm 3 m/S 752 mmHg 96%
    04:00 +19°C° 0.1 mm 3 m/S 752 mmHg 96%
    05:00 +19°C° 0.1 mm 4 m/S 752 mmHg 96%
    06:00 +19°C° 0.1 mm 4 m/S 752 mmHg 96%
    07:00 +20°C° 0.1 mm 4 m/S 752 mmHg 95%
    08:00 +20°C° 0.1 mm 4 m/S 752 mmHg 94%
    09:00 +21°C° 0.1 mm 4 m/S 752 mmHg 93%
    10:00 +21°C° 0.6 mm 4 m/S 752 mmHg 93%
    11:00 +21°C° 0.6 mm 4 m/S 751 mmHg 93%
    12:00 +21°C° 0.6 mm 4 m/S 751 mmHg 92%
    13:00 +22°C° 1.3 mm 5 m/S 750 mmHg 89%
    14:00 +23°C° 1.3 mm 5 m/S 749 mmHg 85%
    15:00 +24°C° 1.3 mm 6 m/S 748 mmHg 82%
    16:00 +23°C° 0.7 mm 6 m/S 748 mmHg 84%
    17:00 +23°C° 0.7 mm 6 m/S 748 mmHg 86%
    18:00 +22°C° 0.7 mm 6 m/S 748 mmHg 88%
    19:00 +21°C° 1.1 mm 5 m/S 748 mmHg 86%
    20:00 +21°C° 1.1 mm 5 m/S 749 mmHg 85%
    21:00 +20°C° 1.1 mm 5 m/S 749 mmHg 83%
    22:00 +17°C° 0 mm 5 m/S 750 mmHg 79%
    23:00 +15°C° 0 mm 5 m/S 750 mmHg 75%

    24 Februar, Sonntag

    Zeit Temperatur Niederschläge Wind Luftdruck Luftfeuchtigkeit
    00:00 +12°C° 0 mm 4 m/S 750 mmHg 70%
    01:00 +12°C° 0 mm 4 m/S 751 mmHg 71%
    02:00 +11°C° 0 mm 4 m/S 751 mmHg 72%
    03:00 +10°C° 0 mm 4 m/S 752 mmHg 73%
    04:00 +10°C° 0 mm 4 m/S 752 mmHg 75%
    05:00 +9°C° 0 mm 3 m/S 753 mmHg 76%
    06:00 +8°C° 0 mm 3 m/S 754 mmHg 77%
    07:00 +8°C° 0 mm 4 m/S 755 mmHg 75%
    08:00 +8°C° 0 mm 4 m/S 756 mmHg 72%
    09:00 +10°C° 0 mm 4 m/S 757 mmHg 69%
    10:00 +11°C° 0 mm 4 m/S 757 mmHg 67%
    11:00 +12°C° 0 mm 4 m/S 757 mmHg 65%
    12:00 +13°C° 0 mm 3 m/S 757 mmHg 62%
    13:00 +13°C° 0 mm 3 m/S 757 mmHg 61%
    14:00 +14°C° 0 mm 3 m/S 757 mmHg 59%
    15:00 +14°C° 0 mm 3 m/S 757 mmHg 57%
    16:00 +13°C° 0 mm 3 m/S 757 mmHg 62%
    17:00 +13°C° 0 mm 2 m/S 757 mmHg 66%
    18:00 +10°C° 0 mm 2 m/S 758 mmHg 71%
    19:00 +9°C° 0 mm 2 m/S 758 mmHg 72%
    20:00 +8°C° 0 mm 2 m/S 758 mmHg 73%
    21:00 +8°C° 0 mm 2 m/S 759 mmHg 74%
    22:00 +7°C° 0 mm 2 m/S 759 mmHg 75%
    23:00 +6°C° 0 mm 2 m/S 759 mmHg 75%

    25 Februar, Montag

    Zeit Temperatur Niederschläge Wind Luftdruck Luftfeuchtigkeit
    00:00 +6°C° 0 mm 2 m/S 759 mmHg 76%
    01:00 +5°C° 0 mm 2 m/S 759 mmHg 76%
    02:00 +5°C° 0 mm 2 m/S 760 mmHg 76%
    03:00 +5°C° 0 mm 2 m/S 760 mmHg 76%
    04:00 +4°C° 0 mm 2 m/S 760 mmHg 77%
    05:00 +4°C° 0 mm 2 m/S 761 mmHg 77%
    06:00 +4°C° 0 mm 2 m/S 761 mmHg 78%
    07:00 +5°C° 0 mm 2 m/S 761 mmHg 71%
    08:00 +7°C° 0 mm 3 m/S 762 mmHg 65%
    09:00 +8°C° 0 mm 3 m/S 762 mmHg 59%
    10:00 +10°C° 0 mm 3 m/S 762 mmHg 54%
    11:00 +12°C° 0 mm 3 m/S 762 mmHg 50%
    12:00 +13°C° 0 mm 3 m/S 762 mmHg 45%
    13:00 +14°C° 0 mm 3 m/S 761 mmHg 44%
    14:00 +16°C° 0 mm 3 m/S 760 mmHg 43%
    15:00 +16°C° 0 mm 2 m/S 760 mmHg 42%
    16:00 +15°C° 0 mm 2 m/S 759 mmHg 49%
    17:00 +13°C° 0 mm 2 m/S 759 mmHg 55%
    18:00 +11°C° 0 mm 1 m/S 759 mmHg 61%
    19:00 +9°C° 0 mm 2 m/S 759 mmHg 63%
    20:00 +9°C° 0 mm 2 m/S 759 mmHg 66%
    21:00 +8°C° 0 mm 2 m/S 760 mmHg 68%
    22:00 +7°C° 0 mm 2 m/S 759 mmHg 69%
    23:00 +7°C° 0 mm 2 m/S 759 mmHg 71%

    26 Februar, Dienstag

    Zeit Temperatur Niederschläge Wind Luftdruck Luftfeuchtigkeit
    00:00 +7°C° 0 mm 2 m/S 759 mmHg 72%
    01:00 +6°C° 0 mm 2 m/S 758 mmHg 74%
    02:00 +6°C° 0 mm 2 m/S 758 mmHg 75%
    03:00 +6°C° 0 mm 2 m/S 758 mmHg 77%
    04:00 +6°C° 0 mm 2 m/S 758 mmHg 78%
    05:00 +6°C° 0 mm 2 m/S 758 mmHg 79%
    06:00 +6°C° 0 mm 2 m/S 758 mmHg 80%
    07:00 +7°C° 0 mm 3 m/S 759 mmHg 77%
    08:00 +9°C° 0 mm 3 m/S 759 mmHg 73%
    09:00 +10°C° 0 mm 4 m/S 759 mmHg 70%
    10:00 +11°C° 0 mm 4 m/S 759 mmHg 72%
    11:00 +11°C° 0 mm 3 m/S 758 mmHg 74%
    12:00 +12°C° 0 mm 3 m/S 758 mmHg 76%
    13:00 +13°C° 0 mm 3 m/S 757 mmHg 77%
    14:00 +14°C° 0 mm 3 m/S 757 mmHg 78%
    15:00 +16°C° 0 mm 3 m/S 756 mmHg 79%
    16:00 +16°C° 0.1 mm 3 m/S 756 mmHg 83%
    17:00 +15°C° 0.1 mm 4 m/S 756 mmHg 87%
    18:00 +14°C° 0.1 mm 4 m/S 756 mmHg 91%
    19:00 +14°C° 0.2 mm 4 m/S 756 mmHg 92%
    20:00 +14°C° 0.2 mm 4 m/S 756 mmHg 93%
    21:00 +14°C° 0.2 mm 5 m/S 756 mmHg 94%
    22:00 +14°C° 0.2 mm 4 m/S 755 mmHg 95%
    23:00 +14°C° 0.2 mm 3 m/S 755 mmHg 96%
    Mehr zeigen